When you browse on this site, cookies collect data to enhance your experience and personalize the content and advertising you see.
Visit our Privacy Policy to learn more. By continuing to use the site, you agree to this use of cookies and data.
  • In Lithuania
  • List of Countries
  • For 7 days
  • Water Temperature
  • Satellite Maps
  • Weather Map
  • Weather Widgets
  • user-avatar
    Login

    Hourly Weather Polunino

    Today, 22 March, Friday

    Time Temperature Precipitation Wind Pressure Humidity
    00:00 -3°C° 0 mm 2 mps 744 mmHg 94%
    01:00 -3°C° 0 mm 2 mps 744 mmHg 93%
    02:00 -3°C° 0 mm 2 mps 744 mmHg 93%
    03:00 -4°C° 0 mm 2 mps 743 mmHg 93%
    04:00 -4°C° 0 mm 2 mps 743 mmHg 92%
    05:00 -5°C° 0 mm 3 mps 742 mmHg 92%
    06:00 -5°C° 0 mm 3 mps 742 mmHg 91%
    07:00 -4°C° 0 mm 4 mps 741 mmHg 90%
    08:00 -3°C° 0 mm 4 mps 740 mmHg 90%
    09:00 -1°C° 0 mm 5 mps 739 mmHg 89%
    10:00 -2°C° 0.6 mm 6 mps 738 mmHg 91%
    11:00 -2°C° 0.6 mm 7 mps 737 mmHg 93%
    12:00 -2°C° 0.6 mm 7 mps 736 mmHg 95%
    13:00 -2°C° 0.8 mm 7 mps 735 mmHg 96%
    14:00 -2°C° 0.8 mm 6 mps 735 mmHg 98%
    15:00 -1°C° 0 mm 4 mps 734 mmHg 99%
    16:00 -1°C° 0.4 mm 5 mps 735 mmHg 95%
    17:00 -2°C° 0.4 mm 6 mps 735 mmHg 91%
    18:00 -2°C° 0.4 mm 7 mps 735 mmHg 87%
    19:00 -3°C° 0.2 mm 7 mps 736 mmHg 86%
    20:00 -3°C° 0.2 mm 7 mps 736 mmHg 84%
    21:00 -4°C° 0.2 mm 7 mps 736 mmHg 83%
    22:00 -6°C° 0 mm 7 mps 736 mmHg 84%
    23:00 -6°C° 0 mm 7 mps 736 mmHg 86%

    Tomorrow, 23 March, Saturday

    Time Temperature Precipitation Wind Pressure Humidity
    00:00 -6°C° 0 mm 7 mps 736 mmHg 87%
    01:00 -6°C° 0.1 mm 7 mps 736 mmHg 88%
    02:00 -5°C° 0.1 mm 6 mps 737 mmHg 89%
    03:00 -4°C° 0.1 mm 6 mps 737 mmHg 89%
    04:00 -4°C° 0.1 mm 6 mps 737 mmHg 90%
    05:00 -4°C° 0.1 mm 6 mps 738 mmHg 91%
    06:00 -4°C° 0.1 mm 6 mps 738 mmHg 92%
    07:00 -3°C° 0.1 mm 6 mps 739 mmHg 92%
    08:00 -3°C° 0.1 mm 6 mps 740 mmHg 91%
    09:00 -3°C° 0.1 mm 6 mps 741 mmHg 90%
    10:00 -3°C° 0 mm 6 mps 742 mmHg 90%
    11:00 -3°C° 0 mm 6 mps 742 mmHg 89%
    12:00 -3°C° 0 mm 6 mps 743 mmHg 88%
    13:00 -3°C° 0.1 mm 6 mps 743 mmHg 88%
    14:00 -2°C° 0.1 mm 5 mps 744 mmHg 87%
    15:00 -2°C° 0.1 mm 5 mps 744 mmHg 86%
    16:00 -2°C° 0 mm 4 mps 744 mmHg 87%
    17:00 -2°C° 0 mm 4 mps 744 mmHg 88%
    18:00 -2°C° 0 mm 3 mps 744 mmHg 88%
    19:00 -2°C° 0 mm 3 mps 745 mmHg 89%
    20:00 -4°C° 0 mm 3 mps 745 mmHg 90%
    21:00 -3°C° 0 mm 2 mps 745 mmHg 92%
    22:00 -3°C° 0 mm 2 mps 745 mmHg 91%
    23:00 -3°C° 0 mm 2 mps 745 mmHg 91%

    Day after tomorrow, 24 March, Sunday

    Time Temperature Precipitation Wind Pressure Humidity
    00:00 -1°C° 0 mm 1 mps 745 mmHg 91%
    01:00 -1°C° 0 mm 1 mps 744 mmHg 91%
    02:00 -2°C° 0 mm 1 mps 744 mmHg 91%
    03:00 -4°C° 0 mm 2 mps 744 mmHg 90%
    04:00 -3°C° 0 mm 1 mps 743 mmHg 90%
    05:00 -3°C° 0 mm 1 mps 743 mmHg 90%
    06:00 -3°C° 0 mm 1 mps 742 mmHg 90%
    07:00 -4°C° 0 mm 2 mps 742 mmHg 90%
    08:00 -4°C° 0 mm 2 mps 742 mmHg 90%
    09:00 -4°C° 0 mm 3 mps 742 mmHg 89%
    10:00 -2°C° 0.1 mm 3 mps 741 mmHg 90%
    11:00 -3°C° 0.1 mm 4 mps 741 mmHg 91%
    12:00 -2°C° 0.1 mm 4 mps 740 mmHg 92%
    13:00 -2°C° 0.2 mm 4 mps 740 mmHg 93%
    14:00 -2°C° 0.2 mm 5 mps 739 mmHg 94%
    15:00 -2°C° 0.2 mm 5 mps 739 mmHg 96%
    16:00 -1°C° 0.1 mm 5 mps 739 mmHg 95%
    17:00 -1°C° 0.1 mm 4 mps 738 mmHg 95%
    18:00 -1°C° 0.1 mm 4 mps 738 mmHg 94%
    19:00 -2°C° 0 mm 4 mps 738 mmHg 94%
    20:00 -1°C° 0 mm 3 mps 738 mmHg 93%
    21:00 -1°C° 0 mm 3 mps 738 mmHg 93%
    22:00 -2°C° 0 mm 3 mps 738 mmHg 92%
    23:00 -2°C° 0 mm 3 mps 738 mmHg 90%

    25 March, Monday

    Time Temperature Precipitation Wind Pressure Humidity
    00:00 -4°C° 0 mm 3 mps 738 mmHg 89%
    01:00 -4°C° 0 mm 3 mps 738 mmHg 89%
    02:00 -4°C° 0 mm 3 mps 738 mmHg 89%
    03:00 -4°C° 0 mm 3 mps 738 mmHg 88%
    04:00 -5°C° 0 mm 3 mps 738 mmHg 88%
    05:00 -5°C° 0 mm 3 mps 738 mmHg 87%
    06:00 -4°C° 0 mm 2 mps 738 mmHg 87%
    07:00 -3°C° 0 mm 2 mps 738 mmHg 86%
    08:00 -3°C° 0 mm 2 mps 738 mmHg 85%
    09:00 -2°C° 0 mm 2 mps 738 mmHg 84%
    10:00 -1°C° 0 mm 2 mps 738 mmHg 87%
    11:00 -1°C° 0 mm 3 mps 738 mmHg 89%
    12:00 0°C° 0 mm 3 mps 738 mmHg 92%
    13:00 0°C° 0 mm 3 mps 738 mmHg 91%
    14:00 +1°C° 0 mm 3 mps 738 mmHg 91%
    15:00 +1°C° 0 mm 3 mps 738 mmHg 90%
    16:00 +1°C° 0 mm 3 mps 738 mmHg 87%
    17:00 0°C° 0 mm 3 mps 737 mmHg 84%
    18:00 0°C° 0 mm 3 mps 737 mmHg 80%
    19:00 -1°C° 0 mm 3 mps 738 mmHg 80%
    20:00 -1°C° 0 mm 3 mps 738 mmHg 81%
    21:00 -2°C° 0 mm 2 mps 738 mmHg 81%
    22:00 -2°C° 0 mm 2 mps 738 mmHg 81%
    23:00 -2°C° 0 mm 2 mps 738 mmHg 81%

    26 March, Tuesday

    Time Temperature Precipitation Wind Pressure Humidity
    00:00 -2°C° 0 mm 2 mps 739 mmHg 82%
    01:00 -2°C° 0 mm 2 mps 739 mmHg 82%
    02:00 -2°C° 0 mm 2 mps 739 mmHg 82%
    03:00 -3°C° 0 mm 2 mps 739 mmHg 81%
    04:00 -3°C° 0 mm 2 mps 739 mmHg 82%
    05:00 -3°C° 0 mm 2 mps 739 mmHg 83%
    06:00 -3°C° 0 mm 2 mps 739 mmHg 84%
    07:00 -4°C° 0 mm 3 mps 739 mmHg 85%
    08:00 -2°C° 0 mm 3 mps 739 mmHg 85%
    09:00 -1°C° 0 mm 3 mps 739 mmHg 86%
    10:00 -1°C° 0.2 mm 3 mps 739 mmHg 88%
    11:00 0°C° 0.2 mm 3 mps 738 mmHg 91%
    12:00 -1°C° 0.2 mm 4 mps 738 mmHg 93%
    13:00 0°C° 0.1 mm 4 mps 738 mmHg 89%
    14:00 0°C° 0.1 mm 4 mps 738 mmHg 85%
    15:00 +1°C° 0.1 mm 4 mps 737 mmHg 82%
    16:00 +1°C° 0.2 mm 4 mps 737 mmHg 82%
    17:00 0°C° 0.2 mm 4 mps 737 mmHg 82%
    18:00 0°C° 0.2 mm 4 mps 736 mmHg 82%
    19:00 -1°C° 0 mm 4 mps 737 mmHg 82%
    20:00 -1°C° 0 mm 4 mps 737 mmHg 83%
    21:00 -1°C° 0 mm 4 mps 737 mmHg 83%
    22:00 -1°C° 0.7 mm 5 mps 737 mmHg 86%
    23:00 -2°C° 0.7 mm 5 mps 737 mmHg 89%

    27 March, Wednesday

    Time Temperature Precipitation Wind Pressure Humidity
    00:00 -2°C° 0.7 mm 5 mps 736 mmHg 92%
    01:00 -4°C° 0.2 mm 5 mps 736 mmHg 91%
    02:00 -3°C° 0.2 mm 4 mps 736 mmHg 90%
    03:00 -4°C° 0.2 mm 4 mps 736 mmHg 89%
    04:00 -5°C° 0 mm 4 mps 737 mmHg 89%
    05:00 -5°C° 0 mm 4 mps 737 mmHg 89%
    06:00 -5°C° 0 mm 3 mps 737 mmHg 89%
    07:00 -5°C° 0 mm 4 mps 737 mmHg 87%
    08:00 -4°C° 0 mm 4 mps 738 mmHg 86%
    09:00 -3°C° 0 mm 4 mps 738 mmHg 84%
    10:00 -4°C° 0 mm 5 mps 739 mmHg 78%
    11:00 -2°C° 0 mm 5 mps 739 mmHg 72%
    12:00 -2°C° 0 mm 6 mps 739 mmHg 66%
    13:00 -2°C° 0 mm 6 mps 740 mmHg 64%
    14:00 -2°C° 0 mm 6 mps 740 mmHg 62%
    15:00 -1°C° 0 mm 7 mps 741 mmHg 59%
    16:00 -2°C° 0 mm 6 mps 741 mmHg 61%
    17:00 -1°C° 0 mm 5 mps 742 mmHg 62%
    18:00 -2°C° 0 mm 5 mps 742 mmHg 63%
    19:00 -2°C° 0 mm 5 mps 742 mmHg 66%
    20:00 -4°C° 0 mm 5 mps 743 mmHg 68%
    21:00 -4°C° 0 mm 5 mps 743 mmHg 71%
    22:00 -5°C° 0 mm 5 mps 744 mmHg 72%
    23:00 -5°C° 0 mm 5 mps 744 mmHg 74%
    Show more